Location: Castelbiague
(43.0361°N, 0.9246°E)
Time: 09:04:30
(UTC+00:00)

USA 215 - Pass Details

Date: 18 October 2021
Orbit: 1099 x 1109 km, 123.0° (Epoch: 20 November)

Event Time Altitude Azimuth Distance (km) Brightness Sun altitude
Exits shadow 21:48:00 18° 325° (NW) 2,392 5.4 -48.7°
Drops below altitude 10° 21:49:41 10° 318° (NW) 2,964 6.0 -48.9°
Sets 21:52:18 0° 311° (NW) 3,925 6.8 -49.3°
